THORAD AGENA D DEB, 4652

Orbit data source: Space-Track

THORAD AGENA D DEB, 4652 is space debris in SSO originally from a launch on Wed, 08 Apr 1970 UTC launched from the Air Force Western Test Range (AFWTR). Debris objects in space refer to the collection of defunct objects orbiting the Earth. Examples of debris include non-operational satellites, rocket bodies, and fragments generated from explosions, collisions, or faulty payload assembly.

Loading next visibility...
Identifier
4652, 1970-025AL
Orbit
SSO
Last TLE update
14 hours ago
Origin
Manufacturer
Unknown
Mission
Spacecraft
Bus & Motor
Unknown
Mass
Unknown
Launch date (UTC)
1970-04-08 (55 years ago)
Launch vehicle
Unknown
Launch site
Air Force Western Test Range (AFWTR)
Object type
Payload
Rocket body
Debris
Shape & HBR
Unknown
Radar Cross Section
Small (<0.1 m²)

Expand to show TLE details & history

TLE from 14 hours ago
0 THORAD AGENA D DEB
1 04652U 70025AL  25128.62227814  .00001328  00000-0  11168-2 0  9994
2 04652  99.5784 265.3064 0031063 217.9138 155.6315 13.89694705761014
Epoch: 2025-05-08T14:56Z
Definitive object data (Epoch: 2025-05-08T14:56:04.831Z)
Latitude
13.46448°
Longitude
172.29268°
Altitude
952.496 km
Speed
7.366 km/s
True Right ascension
17h 32m 00s
True Declination
13° 23' 20"
Sunlit
Object was in full shadow at TLE epoch
Visualization TLE readout
Latitude
64.62322°
Longitude
154.47288°
Altitude
960.426 km
Speed
7.368 km/s
Apparent Right ascension
22h 29m 13s
Apparent Declination
34° 54' 50"
Sunlit
Object is in daylight
Visualization observer readout
Local Sidereal Time
13:09:19
Azimuth
32.063° NE
Elevation
-6.567°
Doppler factor
1
Orbital elements
Apogee altitude
949.635 km
Perigee altitude
904.251 km
Semi-major axis
7,305.08 km
Eccentricity
0.0031063
Inclination
99.5784°
RAAN
265.3064°
Arg. of periapsis
217.9138°
True anomaly
155.77785°
Mean anomaly
155.6315°
Eccentric anomaly
155.70473°
Mean motion
3.47621 °/min
BSTAR
0.0011168
Orbital period
103.56 mins
Loading maneuver chart data...
Loading SW <> Apogee altitude chart data...

THORAD AGENA D DEB Visibility forecast

Observer location: undefined°, undefined°

Span
Click to sort rows by Start time (UTC) header in descending order
Start Az.
Max El. time (UTC)
Max El. Az.
Max El.
End time (UTC)
End Az.
10 mins2025-05-09 08:16:43.363Z132.709° SE2025-05-09 08:21:43.363Z58.588° ENE33.781°2025-05-09 08:26:43.363Z359.978° N
9 mins2025-05-09 09:59:43.363Z212.9° SW2025-05-09 10:03:43.363Z264.957° W25.581°2025-05-09 10:08:43.363Z322.316° NNW
7 mins2025-05-09 20:52:43.363Z57.207° ENE2025-05-09 20:55:43.363Z96.293° ESE20.916°2025-05-09 20:59:43.363Z142.342° SSE
9 mins2025-05-09 22:33:43.363Z359.906° N2025-05-09 22:37:43.363Z302.183° NW37.614°2025-05-09 22:42:43.363Z219.523° SW
|